Vorticity
10 5 5 9 6 16 10 10 8 14 12 5 6 6 8 8 36 54 32 -8 -11 2 22 -1 4 12 -2 8 14 31 -11 -22 -23 18 26 17 14 5 28 14 2 -1 8 18
-2 10 1 11 6 4 12 5 15 7 19 8 6 9 5 8 5 28 39 41 -1 6 -4 -14 -6 -0 9 14 1 19 17 12 22 -1 -7 -4 -6 -3 2 30 21 11 7 5
-10 6 11 5 8 16 6 8 16 9 15 14 9 8 8 7 8 6 29 41 41 22 4 10 10 14 15 -16 26 21 -2 8 12 19 22 17 14 10 8 2 22 19 7 7
5 2 3 5 10 10 4 10 7 6 11 14 10 8 10 7 8 6 3 29 10 61 26 7 4 6 -32 -6 8 -11 16 -4 6 1 15 6 5 14 14 7 8 13 15 11
-1 1 -2 3 0 8 10 8 12 9 10 17 12 7 8 11 5 8 8 4 38 4 40 27 28 5 4 10 11 12 16 8 7 14 4 8 9 -4 4 15 13 11 11 15
4 1 1 -0 8 12 8 7 9 9 10 13 14 10 4 8 10 8 9 9 3 8 30 5 48 25 7 3 12 15 4 32 21 1 -9 15 17 7 -1 9 4 8 14 15
7 7 -1 6 4 15 5 5 7 12 6 11 15 14 9 6 9 6 7 9 10 3 3 27 25 6 56 14 16 10 -8 -8 -16 2 4 12 3 15 16 7 7 12 4 6
6 0 6 5 5 6 7 6 9 8 8 8 12 16 10 6 8 11 8 6 7 8 7 7 0 29 14 87 21 10 8 11 20 6 9 5 10 1 -5 1 9 7 3 11
2 4 5 3 5 3 5 8 11 6 7 9 10 15 14 9 5 9 11 5 7 9 7 6 5 4 20 7 53 49 22 -0 4 10 16 8 13 17 16 18 12 5 16 11
5 5 3 -0 6 8 10 6 8 7 11 14 11 16 16 10 7 7 11 11 6 12 9 9 6 0 1 13 9 10 54 53 23 5 4 1 8 1 -2 39 24 20 18 15
8 7 7 5 5 4 5 5 6 8 11 11 12 15 14 13 8 5 6 10 8 8 8 8 9 7 3 5 11 9 4 21 48 50 32 13 5 2 -1 -6 11 4 1 23
-0 12 21 3 3 1 6 8 7 3 15 10 16 12 15 14 10 7 6 8 8 7 9 11 12 8 9 3 1 7 14 8 0 16 47 39 31 26 7 2 6 2 -7 3
9 -2 3 10 2 1 3 7 6 9 7 10 17 11 16 16 11 7 8 8 8 11 7 11 7 9 12 7 4 2 1 4 15 9 3 2 36 44 20 25 24 11 13 10
7 4 -3 10 9 4 2 4 6 16 8 17 8 12 13 17 11 10 6 7 11 9 10 10 10 8 15 13 8 5 2 1 3 7 12 11 7 -1 16 44 30 13 16 15
-1 0 8 13 5 12 5 6 2 11 11 14 13 12 8 17 13 10 6 7 9 8 10 10 9 8 14 14 13 10 7 6 5 2 3 5 8 10 10 7 4 11 34 37
1 -2 -0 2 6 10 4 7 8 7 10 10 18 11 12 17 13 9 7 6 7 10 11 8 9 9 17 11 16 10 12 12 10 7 5 8 5 6 7 8 9 12 9 6
1 -0 4 2 9 13 7 5 6 17 6 9 17 11 14 15 14 10 8 7 4 11 11 11 8 13 17 12 7 15 13 14 14 11 12 7 5 10 6 6 9 11 12 10
1 2 6 4 6 13 8 5 14 11 7 12 18 12 19 17 12 10 7 6 6 7 11 12 9 12 11 13 10 6 8 7 6 8 9 11 9 6 11 9 6 8 8 9
10 10 2 7 3 20 9 6 11 19 5 10 19 8 21 21 11 10 7 6 7 11 11 13 11 11 13 12 10 8 9 7 4 5 5 6 8 7 7 7 7 4 4 7
24 13 8 13 12 13 13 11 7 9 9 11 14 14 21 21 15 10 9 6 5 4 12 15 14 13 10 10 12 11 7 6 8 8 9 7 9 13 11 9 10 10 10 6
-3 15 12 11 14 14 14 4 12 15 8 15 18 18 18 13 13 9 7 3 3 4 9 13 9 8 8 9 8 11 10 7 4 5 6 3 2 4 11 17 16 17 18 20
9 9 7 12 15 8 10 10 16 15 9 19 15 20 16 14 11 8 2 5 7 7 6 11 9 7 7 11 10 8 8 12 13 14 13 12 16 16 18 19 20 18 18 19
9 4 9 13 -9 -3 11 24 18 28 13 13 16 16 16 12 6 7 8 6 6 7 7 12 11 7 9 6 -2 12 22 18 16 9 18 23 23 17 12 10 11 11 15 15
3 12 12 1 -5 12 19 13 31 21 15 13 18 18 14 7 8 4 7 1 8 2 11 11 5 8 6 6 12 17 14 8 6 18 20 17 17 14 12 12 12 11 12 18
15 18 -4 1 19 15 5 13 32 15 6 13 22 14 8 9 7 5 4 5 2 10 10 5 7 6 8 13 17 19 12 14 17 13 9 13 11 11 9 8 7 7 5 8
13 0 3 14 28 10 22 25 25 12 9 15 16 13 10 6 3 3 1 5 9 8 7 6 4 5 15 18 18 13 11 10 19 11 6 4 5 6 1 9 9 3 2 8
3 -2 15 19 15 25 16 21 14 8 10 16 23 11 2 3 1 3 7 9 7 5 4 2 5 16 20 18 16 14 11 11 22 14 7 6 4 19 24 20 17 14 14 17
Height
5732 5724 5716 5706 5697 5687 5677 5668 5658 5645 5636 5635 5622 5611 5603 5598 5591 5589 5588 5589 5590 5592 5593 5594 5597 5600 5603 5604 5610 5614 5618 5623 5628 5635 5638 5642 5646 5650 5655 5659 5667 5671 5673 5681
5731 5724 5715 5707 5698 5689 5679 5670 5660 5651 5641 5635 5625 5616 5610 5604 5600 5594 5590 5591 5594 5595 5597 5600 5599 5601 5604 5607 5610 5613 5618 5621 5625 5629 5635 5639 5644 5648 5652 5655 5660 5664 5669 5675
5730 5722 5714 5706 5698 5690 5682 5671 5662 5655 5646 5635 5628 5621 5617 5612 5606 5601 5596 5593 5592 5595 5598 5599 5600 5602 5605 5608 5610 5612 5616 5620 5624 5630 5636 5637 5639 5642 5646 5650 5653 5658 5662 5668
5729 5721 5713 5705 5697 5689 5682 5672 5664 5655 5647 5639 5632 5625 5620 5616 5611 5607 5601 5597 5594 5592 5594 5598 5601 5603 5605 5607 5608 5611 5614 5618 5621 5624 5628 5631 5634 5637 5640 5645 5649 5651 5657 5662
5724 5718 5712 5704 5696 5687 5680 5673 5665 5656 5649 5641 5633 5628 5623 5618 5615 5611 5606 5603 5599 5597 5593 5593 5596 5599 5601 5602 5606 5608 5612 5615 5617 5620 5622 5625 5628 5632 5634 5637 5640 5645 5650 5655
5717 5713 5708 5702 5695 5686 5679 5670 5663 5656 5648 5642 5636 5630 5625 5621 5616 5614 5610 5606 5602 5599 5598 5597 5596 5595 5596 5598 5599 5602 5605 5608 5611 5614 5617 5619 5620 5624 5627 5631 5635 5638 5641 5648
5712 5707 5703 5697 5692 5684 5677 5668 5661 5653 5648 5641 5637 5632 5626 5621 5617 5615 5612 5609 5605 5603 5598 5596 5594 5592 5589 5591 5593 5596 5598 5602 5605 5606 5610 5611 5617 5618 5621 5624 5627 5631 5635 5638
5708 5700 5697 5693 5687 5680 5674 5668 5661 5652 5646 5640 5634 5629 5626 5622 5617 5614 5611 5608 5605 5602 5599 5596 5594 5589 5587 5582 5583 5586 5589 5591 5594 5597 5601 5605 5609 5613 5616 5616 5620 5623 5626 5628
5704 5696 5689 5687 5683 5676 5671 5665 5658 5652 5644 5638 5633 5627 5622 5620 5615 5611 5608 5605 5602 5600 5598 5595 5591 5587 5583 5579 5577 5578 5580 5582 5586 5589 5590 5593 5600 5602 5604 5607 5608 5613 5615 5618
5699 5692 5684 5677 5677 5671 5666 5661 5656 5649 5642 5636 5629 5623 5619 5615 5612 5609 5605 5602 5599 5597 5595 5592 5589 5585 5582 5578 5575 5574 5573 5574 5575 5577 5581 5585 5590 5593 5594 5595 5604 5603 5607 5608
5693 5687 5680 5669 5667 5664 5659 5655 5649 5643 5637 5631 5625 5619 5614 5611 5608 5605 5602 5599 5595 5592 5590 5588 5586 5583 5581 5578 5575 5573 5571 5569 5569 5570 5572 5576 5580 5582 5584 5586 5588 5591 5595 5597
5682 5678 5673 5667 5656 5656 5652 5647 5643 5638 5633 5626 5620 5615 5610 5605 5602 5599 5596 5594 5591 5588 5585 5583 5581 5579 5576 5574 5572 5570 5569 5567 5566 5565 5564 5566 5567 5569 5570 5573 5576 5578 5581 5584
5669 5667 5664 5659 5652 5644 5644 5639 5634 5629 5623 5618 5612 5608 5604 5599 5596 5593 5590 5588 5585 5582 5579 5577 5575 5573 5571 5568 5566 5564 5563 5560 5557 5557 5557 5557 5557 5558 5559 5561 5563 5565 5566 5568
5656 5654 5652 5649 5644 5634 5630 5630 5627 5621 5616 5610 5604 5598 5595 5592 5589 5587 5583 5580 5579 5576 5572 5569 5568 5565 5564 5563 5561 5559 5557 5555 5554 5553 5551 5550 5550 5550 5549 5550 5551 5552 5553 5555
5643 5640 5639 5635 5632 5626 5618 5617 5614 5611 5609 5603 5596 5589 5585 5582 5579 5578 5576 5572 5570 5568 5566 5561 5559 5558 5556 5554 5553 5550 5549 5548 5549 5548 5545 5544 5542 5542 5541 5541 5541 5540 5539 5541
5626 5626 5624 5621 5618 5614 5606 5603 5603 5597 5594 5591 5587 5581 5575 5572 5569 5568 5566 5564 5562 5561 5559 5554 5550 5548 5547 5545 5543 5539 5539 5539 5538 5537 5535 5534 5534 5533 5532 5531 5531 5530 5529 5528
5610 5609 5607 5608 5604 5600 5593 5587 5588 5585 5581 5578 5575 5570 5566 5562 5559 5558 5557 5554 5553 5551 5549 5547 5542 5537 5537 5535 5532 5532 5531 5530 5529 5527 5526 5525 5523 5523 5521 5520 5519 5518 5517 5516
5592 5591 5590 5592 5587 5585 5580 5569 5571 5570 5568 5565 5561 5559 5554 5550 5549 5547 5546 5545 5543 5541 5538 5537 5535 5530 5525 5525 5523 5521 5520 5519 5518 5517 5516 5515 5513 5511 5509 5508 5506 5504 5503 5501
5574 5574 5574 5576 5573 5569 5564 5555 5555 5555 5554 5550 5548 5544 5542 5538 5536 5535 5535 5533 5532 5532 5529 5526 5526 5522 5516 5515 5512 5512 5510 5508 5507 5506 5504 5503 5501 5499 5496 5494 5492 5490 5487 5485
5558 5557 5557 5556 5557 5553 5550 5541 5539 5543 5540 5536 5533 5530 5528 5527 5524 5522 5523 5522 5520 5520 5520 5515 5516 5514 5508 5503 5501 5499 5497 5496 5494 5492 5489 5487 5486 5484 5482 5479 5476 5473 5471 5469
5542 5541 5538 5538 5538 5536 5532 5525 5524 5528 5525 5522 5519 5517 5514 5512 5511 5509 5509 5508 5506 5507 5509 5505 5504 5501 5496 5490 5487 5485 5483 5481 5479 5477 5474 5471 5468 5465 5462 5460 5458 5455 5453 5451
5523 5524 5519 5521 5522 5519 5516 5513 5512 5513 5511 5508 5505 5503 5501 5500 5498 5497 5496 5495 5494 5494 5494 5492 5490 5485 5479 5476 5474 5472 5469 5467 5463 5459 5456 5453 5450 5446 5444 5442 5439 5436 5434 5432
5505 5504 5502 5503 5504 5500 5499 5498 5496 5497 5495 5493 5493 5491 5490 5488 5486 5484 5482 5481 5481 5480 5479 5478 5476 5470 5468 5464 5461 5456 5453 5448 5444 5440 5436 5433 5431 5429 5426 5424 5421 5419 5417 5416
5486 5486 5483 5485 5481 5483 5484 5483 5482 5482 5481 5481 5480 5479 5479 5476 5472 5469 5468 5466 5466 5465 5466 5464 5459 5456 5452 5449 5444 5439 5435 5430 5427 5423 5420 5417 5415 5412 5410 5408 5405 5404 5402 5400
5465 5463 5463 5466 5468 5467 5466 5466 5466 5466 5466 5467 5468 5467 5465 5463 5459 5456 5455 5454 5452 5453 5449 5444 5442 5439 5435 5430 5426 5421 5418 5414 5410 5407 5405 5403 5399 5397 5394 5392 5390 5388 5386 5384
5440 5443 5448 5452 5453 5453 5452 5452 5452 5451 5451 5452 5455 5453 5451 5448 5445 5445 5443 5440 5440 5435 5431 5428 5424 5420 5416 5412 5408 5404 5400 5397 5394 5390 5388 5386 5384 5381 5378 5376 5374 5371 5369 5367
5422 5434 5438 5438 5438 5438 5437 5440 5439 5437 5438 5439 5440 5438 5437 5434 5431 5431 5429 5428 5424 5419 5415 5411 5407 5402 5398 5395 5391 5387 5383 5379 5375 5372 5370 5368 5366 5363 5360 5358 5357 5355 5352 5351